Weather History for Bentonville, AR

Change the Weather History Date:

Saturday, November 16, 2013

  Actual Average Record
Temperature  
Mean Temperature 61 °F -  
Max Temperature 69 °F 56 °F 78 °F (1964)
Min Temperature 53 °F 34 °F 17 °F (1982)
Degree Days  
Heating Degree Days 4    
Growing Degree Days 11 (Base 50)    
Moisture  
Dew Point 55 °F    
Average Humidity 76    
Maximum Humidity 88    
Minimum Humidity 60    
Precipitation  
Precipitation 0.00 in - - ()
Sea Level Pressure  
Sea Level Pressure 29.73 in    
Wind  
Wind Speed 15 mph (South)    
Max Wind Speed 24 mph    
Max Gust Speed 32 mph    
Visibility 10 miles    
Events      
Averages and records for this station are not official NWS values.
T = Trace of Precipitation, MM = Missing Value Source: NWS Daily Summary

Daily Weather History Graph

Daily Weather History Graph

Search for Another Location

Airport:

Trip Planner

Search our weather history database for the weather conditions in past years. The results will help you decide how hot, cold, wet, or windy it might be!

Date:

Astronomy

Nov. 16, 2013 Rise Set
Actual Time 6:55 AM CST 5:07 PM CST
Civil Twilight 6:27 AM CST 5:35 PM CST
Nautical Twilight 5:56 AM CST 6:06 PM CST
Astronomical Twilight 5:26 AM CST 6:36 PM CST
Moon 4:42 PM CST (11/16) 5:53 AM CST (11/16)
Length of Visible Light 11h 07m
Length of Day
10h 12m
Waxing Gibbous, 99% of the Moon is Illuminated
Nov 16
Waxing Gibbous
Nov 17
Full
Nov 25
Last Quarter
Dec 2
New
Dec 9
First Quarter

Hourly Weather History & Observations

Time (CST) Temp. Dew Point Humidity Pressure Visibility Wind Dir Wind Speed Gust Speed Precip Events Conditions
12:15 AM 53.6 °F 46.4 °F 77% 29.86 in 10.0 mi SSE 12.7 mph - N/A   Clear
12:35 AM 53.6 °F 48.2 °F 82% 29.85 in 10.0 mi SSE 11.5 mph - N/A   Clear
12:55 AM 53.6 °F 48.2 °F 82% 29.84 in 10.0 mi SSE 12.7 mph 17.3 mph N/A   Clear
1:15 AM 53.6 °F 48.2 °F 82% 29.84 in 10.0 mi South 12.7 mph 17.3 mph N/A   Clear
1:35 AM 53.6 °F 48.2 °F 82% 29.84 in 10.0 mi South 10.4 mph - N/A   Clear
1:55 AM 55.4 °F 50.0 °F 82% 29.83 in 10.0 mi South 11.5 mph 16.1 mph N/A   Scattered Clouds
2:15 AM 55.4 °F 51.8 °F 88% 29.83 in 10.0 mi South 9.2 mph - N/A   Partly Cloudy
2:35 AM 57.2 °F 51.8 °F 82% 29.83 in 10.0 mi South 11.5 mph 16.1 mph N/A   Mostly Cloudy
2:55 AM 57.2 °F 51.8 °F 82% 29.83 in 10.0 mi South 13.8 mph 20.7 mph N/A   Scattered Clouds
3:15 AM 57.2 °F 51.8 °F 82% 29.82 in 10.0 mi South 9.2 mph 18.4 mph N/A   Mostly Cloudy
3:35 AM 57.2 °F 51.8 °F 82% 29.81 in 10.0 mi South 13.8 mph 19.6 mph N/A   Mostly Cloudy
3:55 AM 57.2 °F 51.8 °F 82% 29.81 in 10.0 mi South 15.0 mph 19.6 mph N/A   Mostly Cloudy
4:15 AM 57.2 °F 51.8 °F 82% 29.80 in 10.0 mi South 12.7 mph 19.6 mph N/A   Scattered Clouds
4:35 AM 59.0 °F 53.6 °F 82% 29.80 in 10.0 mi South 13.8 mph 19.6 mph N/A   Clear
4:55 AM 59.0 °F 53.6 °F 82% 29.80 in 10.0 mi South 16.1 mph 21.9 mph N/A   Mostly Cloudy
5:15 AM 60.8 °F 53.6 °F 77% 29.80 in 10.0 mi South 13.8 mph 20.7 mph N/A   Overcast
5:35 AM 60.8 °F 53.6 °F 77% 29.80 in 10.0 mi South 15.0 mph 21.9 mph N/A   Overcast
5:55 AM 60.8 °F 53.6 °F 77% 29.79 in 10.0 mi South 15.0 mph 19.6 mph N/A   Mostly Cloudy
6:15 AM 60.8 °F 53.6 °F 77% 29.79 in 10.0 mi South 11.5 mph 24.2 mph N/A   Mostly Cloudy
6:35 AM 60.8 °F 53.6 °F 77% 29.79 in 10.0 mi South 13.8 mph 23.0 mph N/A   Mostly Cloudy
6:55 AM 60.8 °F 53.6 °F 77% 29.79 in 10.0 mi South 15.0 mph 21.9 mph N/A   Scattered Clouds
7:15 AM 60.8 °F 53.6 °F 77% 29.79 in 10.0 mi South 15.0 mph 21.9 mph N/A   Mostly Cloudy
7:35 AM 60.8 °F 53.6 °F 77% 29.79 in 10.0 mi South 15.0 mph 24.2 mph N/A   Overcast
7:55 AM 60.8 °F 53.6 °F 77% 29.78 in 10.0 mi South 17.3 mph 23.0 mph N/A   Overcast
8:15 AM 62.6 °F 55.4 °F 77% 29.80 in 10.0 mi South 17.3 mph 23.0 mph N/A   Overcast
8:35 AM 62.6 °F 55.4 °F 77% 29.79 in 10.0 mi South 15.0 mph 25.3 mph N/A   Overcast
8:55 AM 62.6 °F 55.4 °F 77% 29.81 in 10.0 mi South 16.1 mph 28.8 mph N/A   Overcast
9:15 AM 62.6 °F 53.6 °F 72% 29.82 in 10.0 mi SSW 17.3 mph 29.9 mph N/A   Overcast
9:35 AM 62.6 °F 55.4 °F 77% 29.81 in 10.0 mi South 20.7 mph 26.5 mph N/A   Overcast
9:55 AM 62.6 °F 53.6 °F 72% 29.80 in 10.0 mi South 13.8 mph 27.6 mph N/A   Overcast
10:15 AM 64.4 °F 55.4 °F 73% 29.80 in 10.0 mi South 20.7 mph 29.9 mph N/A   Overcast
10:35 AM 64.4 °F 55.4 °F 73% 29.79 in 10.0 mi South 17.3 mph 26.5 mph N/A   Overcast
10:55 AM 64.4 °F 55.4 °F 73% 29.80 in 10.0 mi SSW 18.4 mph 27.6 mph N/A   Overcast
11:15 AM 64.4 °F 55.4 °F 73% 29.80 in 10.0 mi SSW 20.7 mph 25.3 mph N/A   Overcast
11:35 AM 62.6 °F 55.4 °F 77% 29.77 in 10.0 mi South 16.1 mph 28.8 mph N/A   Overcast
11:55 AM 62.6 °F 55.4 °F 77% 29.75 in 9.0 mi South 18.4 mph 29.9 mph N/A   Mostly Cloudy
12:15 PM 62.6 °F 55.4 °F 77% 29.72 in 10.0 mi South 16.1 mph 24.2 mph N/A   Mostly Cloudy
12:35 PM 64.4 °F 57.2 °F 77% 29.70 in 10.0 mi South 16.1 mph 23.0 mph N/A   Scattered Clouds
12:55 PM 66.2 °F 57.2 °F 73% 29.69 in 10.0 mi South 19.6 mph 27.6 mph N/A   Scattered Clouds
1:15 PM 66.2 °F 57.2 °F 73% 29.68 in 10.0 mi South 15.0 mph 31.1 mph N/A   Mostly Cloudy
1:35 PM 68.0 °F 57.2 °F 68% 29.68 in 10.0 mi South 24.2 mph 32.2 mph N/A   Mostly Cloudy
1:55 PM 68.0 °F 55.4 °F 64% 29.66 in 10.0 mi South 21.9 mph 29.9 mph N/A   Mostly Cloudy
2:15 PM 69.8 °F 55.4 °F 60% 29.65 in 10.0 mi SSW 16.1 mph 27.6 mph N/A   Partly Cloudy
2:35 PM 69.8 °F 55.4 °F 60% 29.64 in 10.0 mi South 20.7 mph 29.9 mph N/A   Clear
2:55 PM 68.0 °F 55.4 °F 64% 29.63 in 10.0 mi South 18.4 mph 29.9 mph N/A   Clear
3:15 PM 68.0 °F 55.4 °F 64% 29.64 in 10.0 mi South 17.3 mph 28.8 mph N/A   Clear
3:35 PM 66.2 °F 55.4 °F 68% 29.64 in 10.0 mi South 19.6 mph 31.1 mph N/A   Mostly Cloudy
3:55 PM 66.2 °F 55.4 °F 68% 29.65 in 10.0 mi South 17.3 mph 28.8 mph N/A   Mostly Cloudy
4:15 PM 66.2 °F 55.4 °F 68% 29.65 in 10.0 mi South 20.7 mph 25.3 mph N/A   Overcast
4:35 PM 66.2 °F 55.4 °F 68% 29.65 in 10.0 mi South 17.3 mph 26.5 mph N/A   Mostly Cloudy
4:55 PM 66.2 °F 55.4 °F 68% 29.65 in 10.0 mi South 17.3 mph 27.6 mph N/A   Scattered Clouds
5:15 PM 64.4 °F 55.4 °F 73% 29.65 in 10.0 mi South 17.3 mph 24.2 mph N/A   Mostly Cloudy
5:35 PM 64.4 °F 55.4 °F 73% 29.65 in 10.0 mi South 18.4 mph 26.5 mph N/A   Mostly Cloudy
5:55 PM 64.4 °F 55.4 °F 73% 29.65 in 10.0 mi South 12.7 mph 25.3 mph N/A   Mostly Cloudy
6:15 PM 64.4 °F 55.4 °F 73% 29.65 in 10.0 mi South 11.5 mph 21.9 mph N/A   Mostly Cloudy
6:35 PM 64.4 °F 55.4 °F 73% 29.64 in 10.0 mi South 11.5 mph 21.9 mph N/A   Partly Cloudy
6:55 PM 64.4 °F 55.4 °F 73% 29.64 in 10.0 mi South 16.1 mph 24.2 mph N/A   Clear
7:15 PM 64.4 °F 55.4 °F 73% 29.64 in 10.0 mi South 16.1 mph 24.2 mph N/A   Mostly Cloudy
7:35 PM 66.2 °F 57.2 °F 73% 29.66 in 10.0 mi South 15.0 mph 24.2 mph N/A   Overcast
7:55 PM 66.2 °F 57.2 °F 73% 29.66 in 10.0 mi SSW 13.8 mph 25.3 mph N/A   Overcast
8:15 PM 66.2 °F 57.2 °F 73% 29.65 in 10.0 mi South 13.8 mph 26.5 mph N/A   Overcast
8:35 PM 66.2 °F 57.2 °F 73% 29.66 in 10.0 mi South 16.1 mph 25.3 mph N/A   Overcast
8:55 PM 66.2 °F 59.0 °F 78% 29.66 in 10.0 mi South 13.8 mph 23.0 mph N/A   Mostly Cloudy
9:15 PM 66.2 °F 59.0 °F 78% 29.66 in 10.0 mi South 13.8 mph 23.0 mph N/A   Overcast
9:35 PM 66.2 °F 60.8 °F 83% 29.66 in 10.0 mi South 16.1 mph 21.9 mph N/A   Overcast
9:55 PM 66.2 °F 60.8 °F 83% 29.66 in 10.0 mi SSW 13.8 mph 21.9 mph N/A   Overcast
10:15 PM 66.2 °F 60.8 °F 83% 29.65 in 10.0 mi South 16.1 mph 25.3 mph N/A   Overcast
10:35 PM 68.0 °F 60.8 °F 78% 29.65 in 10.0 mi SSW 15.0 mph 21.9 mph N/A   Overcast
10:55 PM 68.0 °F 60.8 °F 78% 29.65 in 10.0 mi SSW 16.1 mph 23.0 mph N/A   Overcast
11:15 PM 68.0 °F 60.8 °F 78% 29.64 in 10.0 mi SSW 15.0 mph 23.0 mph N/A   Overcast
11:35 PM 68.0 °F 60.8 °F 78% 29.63 in 10.0 mi SSW 17.3 mph 24.2 mph N/A   Overcast
11:55 PM 69.8 °F 62.6 °F 78% 29.63 in 10.0 mi South 19.6 mph 27.6 mph N/A   Overcast